SVA441 ENGM-EDDF

Flight info

Callsign SVA441
Flight time 1h 41m
Altitude 33000
Route VIPPA DCT RAXLU DCT RIMET/N0494F310 T157 KOKEB/N0463F230 T157 KERAX KERAX5D
Aircraft B744/H-SDE3FGHIM1M2RWXY/LB1

Departure

Time 2026-05-01 11:54
Airport Oslo-Gardermoen International Airport (ENGM)

Arrival

Time 2026-05-01 13:35
Airport Frankfurt Main Airport (EDDF)
Time Latitude Longitude Altitude Speed Heading
2026-05-01 11:31 60.19093 11.08534 694 ft 0 kts 107°
2026-05-01 11:44 60.19094 11.08529 694 ft 3 kts 107°
2026-05-01 11:44 60.19101 11.08483 694 ft 3 kts 107°
2026-05-01 11:44 60.19108 11.08437 694 ft 3 kts 107°
2026-05-01 11:44 60.19115 11.08391 694 ft 3 kts 107°
2026-05-01 11:45 60.19121 11.08347 694 ft 3 kts 96°
2026-05-01 11:45 60.19121 11.08323 694 ft 3 kts 64°
2026-05-01 11:45 60.19099 11.08292 694 ft 3 kts 15°
2026-05-01 11:45 60.19086 11.08285 694 ft 0 kts 16°
2026-05-01 11:48 60.19092 11.08288 694 ft 4 kts 16°
2026-05-01 11:48 60.19157 11.08326 694 ft 15 kts 16°
2026-05-01 11:48 60.19287 11.08404 694 ft 25 kts 16°
2026-05-01 11:49 60.19484 11.08511 694 ft 34 kts 15°
2026-05-01 11:49 60.19675 11.08622 694 ft 18 kts 19°
2026-05-01 11:49 60.19790 11.08697 694 ft 17 kts 16°
2026-05-01 11:49 60.19900 11.08758 694 ft 16 kts 15°
2026-05-01 11:50 60.20004 11.08815 694 ft 15 kts 15°
2026-05-01 11:50 60.20109 11.08872 694 ft 22 kts 16°
2026-05-01 11:50 60.20288 11.08974 694 ft 26 kts 16°
2026-05-01 11:50 60.20455 11.09072 694 ft 24 kts 16°
2026-05-01 11:51 60.20608 11.09163 694 ft 23 kts 16°
2026-05-01 11:51 60.20801 11.09275 694 ft 36 kts 15°
2026-05-01 11:51 60.21044 11.09415 694 ft 35 kts 17°
2026-05-01 11:51 60.21271 11.09545 694 ft 32 kts 16°
2026-05-01 11:52 60.21470 11.09651 694 ft 19 kts 356°
2026-05-01 11:52 60.21556 11.09472 694 ft 26 kts 285°
2026-05-01 11:52 60.21588 11.09170 694 ft 13 kts 246°
2026-05-01 11:52 60.21507 11.09110 694 ft 13 kts 194°
2026-05-01 11:53 60.21495 11.09103 694 ft 0 kts 197°
2026-05-01 11:53 60.21438 11.09069 694 ft 21 kts 197°
2026-05-01 11:53 60.21090 11.08867 694 ft 90 kts 196°
2026-05-01 11:54 60.20244 11.08383 705 ft 158 kts 196°
2026-05-01 11:54 60.19097 11.07768 1182 ft 178 kts 196°
2026-05-01 11:54 60.17890 11.07072 2028 ft 185 kts 197°
2026-05-01 11:54 60.16747 11.05878 2716 ft 189 kts 220°
2026-05-01 11:55 60.15903 11.03703 2954 ft 209 kts 237°
2026-05-01 11:55 60.15197 11.00989 3163 ft 230 kts 243°
2026-05-01 11:55 60.14736 10.98991 3305 ft 245 kts 245°
2026-05-01 11:55 60.14022 10.95721 3618 ft 266 kts 248°
2026-05-01 11:56 60.13058 10.90827 4223 ft 287 kts 248°
2026-05-01 11:56 60.12337 10.87321 5839 ft 256 kts 249°
2026-05-01 11:56 60.11907 10.85176 6790 ft 243 kts 250°
2026-05-01 11:56 60.11344 10.82148 8016 ft 226 kts 250°
2026-05-01 11:57 60.10673 10.79237 8621 ft 235 kts 245°
2026-05-01 11:57 60.09877 10.76213 8843 ft 257 kts 243°
2026-05-01 11:57 60.09032 10.72934 9276 ft 269 kts 244°
2026-05-01 11:57 60.08196 10.69504 9843 ft 277 kts 245°
2026-05-01 11:58 60.07366 10.65979 10465 ft 283 kts 245°
2026-05-01 11:58 60.06533 10.62420 11093 ft 287 kts 245°
2026-05-01 11:58 60.03922 10.55874 11624 ft 329 kts 212°
2026-05-01 11:59 60.01739 10.54028 11782 ft 354 kts 199°
2026-05-01 11:59 59.99300 10.52847 11937 ft 378 kts 192°
2026-05-01 11:59 59.96625 10.51993 12093 ft 401 kts 189°
2026-05-01 12:00 59.90916 10.50471 13136 ft 422 kts 189°
2026-05-01 12:00 59.87994 10.49566 13884 ft 428 kts 189°
2026-05-01 12:00 59.82052 10.47611 15536 ft 436 kts 190°
2026-05-01 12:01 59.79045 10.46619 16363 ft 440 kts 190°
2026-05-01 12:01 59.76011 10.45619 17159 ft 444 kts 191°
2026-05-01 12:01 59.72950 10.44611 17930 ft 448 kts 191°
2026-05-01 12:01 59.69859 10.43595 18677 ft 452 kts 191°
2026-05-01 12:02 59.66739 10.42567 19355 ft 456 kts 191°
2026-05-01 12:02 59.63595 10.41537 20066 ft 460 kts 191°
2026-05-01 12:02 59.60416 10.40495 20666 ft 466 kts 191°
2026-05-01 12:02 59.57197 10.39430 21267 ft 471 kts 191°
2026-05-01 12:03 59.53951 10.38333 21910 ft 474 kts 191°
2026-05-01 12:03 59.50698 10.37233 22649 ft 476 kts 192°
2026-05-01 12:03 59.47415 10.36115 23147 ft 482 kts 192°
2026-05-01 12:03 59.44089 10.34976 23661 ft 488 kts 191°
2026-05-01 12:04 59.40727 10.33841 24171 ft 492 kts 191°
2026-05-01 12:04 59.37337 10.32707 24669 ft 496 kts 191°
2026-05-01 12:04 59.33921 10.31568 25167 ft 500 kts 191°
2026-05-01 12:04 59.30483 10.30425 25693 ft 502 kts 191°
2026-05-01 12:05 59.27055 10.29288 26466 ft 497 kts 191°
2026-05-01 12:05 59.20311 10.27054 28008 ft 488 kts 192°
2026-05-01 12:05 59.17012 10.26013 28575 ft 487 kts 191°
2026-05-01 12:06 59.13631 10.25333 29074 ft 489 kts 187°
2026-05-01 12:06 59.10233 10.24915 29563 ft 489 kts 186°
2026-05-01 12:06 59.06835 10.24540 30047 ft 488 kts 186°
2026-05-01 12:06 59.03446 10.24111 30490 ft 488 kts 186°
2026-05-01 12:07 59.00056 10.23665 30934 ft 488 kts 186°
2026-05-01 12:07 58.96677 10.23218 31441 ft 485 kts 186°
2026-05-01 12:07 58.93304 10.22852 31907 ft 485 kts 184°
2026-05-01 12:07 58.89921 10.22768 32289 ft 486 kts 182°
2026-05-01 12:08 58.86543 10.22836 32711 ft 485 kts 182°
2026-05-01 12:08 58.83175 10.22931 33095 ft 485 kts 182°
2026-05-01 12:08 58.76419 10.23072 33217 ft 485 kts 182°
2026-05-01 12:09 58.70687 10.23160 33219 ft 485 kts 182°
2026-05-01 12:09 58.63940 10.23250 33218 ft 485 kts 182°
2026-05-01 12:10 58.53846 10.23375 33325 ft 484 kts 182°
2026-05-01 12:11 58.43717 10.23493 33361 ft 487 kts 182°
2026-05-01 12:11 58.36938 10.23572 33366 ft 487 kts 182°
2026-05-01 12:12 58.30204 10.23650 33380 ft 486 kts 182°
2026-05-01 12:12 58.23436 10.23728 33381 ft 486 kts 182°
2026-05-01 12:13 58.16668 10.23805 33359 ft 487 kts 181°
2026-05-01 12:13 58.09883 10.23883 33351 ft 488 kts 181°
2026-05-01 12:14 58.03096 10.23960 33353 ft 487 kts 181°
2026-05-01 12:14 57.96315 10.24037 33348 ft 487 kts 181°
2026-05-01 12:15 57.89530 10.24113 33329 ft 488 kts 181°
2026-05-01 12:15 57.82737 10.24189 33292 ft 488 kts 181°
2026-05-01 12:16 57.75937 10.24264 33231 ft 489 kts 181°
2026-05-01 12:16 57.69115 10.24340 33156 ft 490 kts 180°
2026-05-01 12:17 57.62285 10.24416 33085 ft 491 kts 180°
2026-05-01 12:17 57.55484 10.24491 33041 ft 492 kts 180°
2026-05-01 12:18 57.48636 10.24567 33025 ft 492 kts 180°
2026-05-01 12:18 57.41785 10.24643 33039 ft 492 kts 180°
2026-05-01 12:19 57.34942 10.24718 33089 ft 492 kts 180°
2026-05-01 12:19 57.28098 10.24792 33163 ft 491 kts 180°
2026-05-01 12:20 57.22386 10.24854 33226 ft 491 kts 180°
2026-05-01 12:20 57.15565 10.24928 33285 ft 490 kts 180°
2026-05-01 12:21 57.08741 10.25001 33245 ft 490 kts 180°
2026-05-01 12:21 57.01926 10.25075 33291 ft 490 kts 180°
2026-05-01 12:22 56.95102 10.25147 33249 ft 491 kts 180°
2026-05-01 12:22 56.88269 10.25220 33182 ft 491 kts 180°
2026-05-01 12:23 56.81426 10.25293 33112 ft 491 kts 180°
2026-05-01 12:23 56.74585 10.25365 33063 ft 492 kts 180°
2026-05-01 12:24 56.67740 10.25437 33049 ft 492 kts 180°
2026-05-01 12:24 56.60945 10.25509 33071 ft 491 kts 180°
2026-05-01 12:25 56.50703 10.25616 33157 ft 490 kts 180°
2026-05-01 12:26 56.43899 10.25687 33233 ft 488 kts 180°
2026-05-01 12:26 56.33726 10.25792 33313 ft 487 kts 180°
2026-05-01 12:27 56.23570 10.25896 33362 ft 486 kts 180°
2026-05-01 12:28 56.13422 10.26001 33417 ft 486 kts 180°
2026-05-01 12:29 56.03280 10.26104 33416 ft 486 kts 180°
2026-05-01 12:29 55.93181 10.26207 33416 ft 486 kts 180°
2026-05-01 12:30 55.83036 10.26309 33419 ft 486 kts 180°
2026-05-01 12:31 55.76273 10.26377 33422 ft 486 kts 180°
2026-05-01 12:31 55.71494 10.26425 33424 ft 486 kts 180°
2026-05-01 12:32 55.64730 10.26493 33427 ft 486 kts 180°
2026-05-01 12:32 55.54589 10.26593 33428 ft 486 kts 179°
2026-05-01 12:33 55.47812 10.26660 33415 ft 487 kts 179°
2026-05-01 12:33 55.41023 10.26728 33407 ft 488 kts 179°
2026-05-01 12:34 55.34272 10.26794 33381 ft 489 kts 179°
2026-05-01 12:34 55.27471 10.26861 33331 ft 489 kts 179°
2026-05-01 12:35 55.20659 10.26927 33271 ft 490 kts 179°
2026-05-01 12:35 55.13843 10.26994 33216 ft 490 kts 179°
2026-05-01 12:36 55.07023 10.27060 33178 ft 490 kts 179°
2026-05-01 12:36 55.00194 10.27126 33168 ft 491 kts 179°
2026-05-01 12:37 54.93368 10.27192 33180 ft 491 kts 179°
2026-05-01 12:37 54.86542 10.27258 33202 ft 490 kts 179°
2026-05-01 12:38 54.79713 10.27323 33184 ft 491 kts 179°
2026-05-01 12:38 54.72887 10.27388 33139 ft 491 kts 179°
2026-05-01 12:39 54.66055 10.27339 33157 ft 491 kts 180°
2026-05-01 12:39 54.59228 10.27198 33180 ft 491 kts 180°
2026-05-01 12:40 54.52401 10.27071 33192 ft 491 kts 180°
2026-05-01 12:40 54.45573 10.26949 33198 ft 491 kts 180°
2026-05-01 12:41 54.38742 10.26830 33214 ft 490 kts 180°
2026-05-01 12:41 54.31921 10.26710 33225 ft 490 kts 180°
2026-05-01 12:42 54.25098 10.26592 33240 ft 490 kts 180°
2026-05-01 12:42 54.19403 10.26494 33260 ft 490 kts 180°
2026-05-01 12:43 54.12630 10.26377 33297 ft 490 kts 180°
2026-05-01 12:43 54.05815 10.26261 33337 ft 489 kts 180°
2026-05-01 12:44 53.99012 10.26145 33420 ft 489 kts 180°
2026-05-01 12:45 53.86485 10.25933 33423 ft 490 kts 180°
2026-05-01 12:45 53.79675 10.25818 33419 ft 490 kts 180°
2026-05-01 12:46 53.72861 10.25704 33415 ft 490 kts 180°
2026-05-01 12:46 53.66085 10.25590 33406 ft 490 kts 180°
2026-05-01 12:47 53.59260 10.25476 33405 ft 490 kts 180°
2026-05-01 12:47 53.52433 10.25363 33404 ft 490 kts 180°
2026-05-01 12:48 53.45616 10.25249 33404 ft 490 kts 180°
2026-05-01 12:48 53.38791 10.25137 33402 ft 490 kts 180°
2026-05-01 12:49 53.31964 10.25024 33402 ft 491 kts 180°
2026-05-01 12:49 53.25138 10.24912 33315 ft 490 kts 180°
2026-05-01 12:50 53.18317 10.24800 33250 ft 491 kts 180°
2026-05-01 12:50 53.11471 10.24689 33188 ft 492 kts 180°
2026-05-01 12:51 53.04634 10.24577 33168 ft 492 kts 180°
2026-05-01 12:52 52.94354 10.24411 33100 ft 492 kts 180°
2026-05-01 12:52 52.84136 10.24246 33070 ft 492 kts 180°
2026-05-01 12:53 52.73859 10.24081 33107 ft 492 kts 180°
2026-05-01 12:54 52.68210 10.23990 33167 ft 492 kts 180°
2026-05-01 12:54 52.57929 10.23826 33271 ft 492 kts 180°
2026-05-01 12:55 52.47642 10.23663 33397 ft 493 kts 180°
2026-05-01 12:56 52.40772 10.23555 33411 ft 494 kts 180°
2026-05-01 12:56 52.33894 10.23446 33415 ft 494 kts 180°
2026-05-01 12:57 52.27070 10.23339 33420 ft 494 kts 180°
2026-05-01 12:57 52.16758 10.23178 33421 ft 494 kts 180°
2026-05-01 12:58 52.09880 10.23070 33419 ft 494 kts 180°
2026-05-01 12:59 51.99554 10.22910 33420 ft 494 kts 180°
2026-05-01 12:59 51.89234 10.22751 33420 ft 494 kts 180°
2026-05-01 13:00 51.82430 10.21345 33425 ft 495 kts 194°
2026-05-01 13:00 51.79112 10.19843 33416 ft 495 kts 196°
2026-05-01 13:01 51.69236 10.15099 33417 ft 496 kts 196°
2026-05-01 13:02 51.59317 10.10344 33409 ft 496 kts 196°
2026-05-01 13:07 50.88247 9.76916 33396 ft 497 kts 196°
2026-05-01 13:08 50.81607 9.73847 33395 ft 497 kts 196°
2026-05-01 13:08 50.74972 9.70763 33394 ft 497 kts 196°
2026-05-01 13:09 50.68337 9.67706 33343 ft 497 kts 196°
2026-05-01 13:09 50.61687 9.64666 33289 ft 496 kts 196°
2026-05-01 13:09 50.58514 9.62620 33193 ft 494 kts 210°
2026-05-01 13:10 50.55735 9.59423 33117 ft 495 kts 223°
2026-05-01 13:10 50.50956 9.51650 33083 ft 495 kts 227°
2026-05-01 13:11 50.46325 9.43691 32553 ft 493 kts 227°
2026-05-01 13:11 50.44007 9.39729 31730 ft 492 kts 227°
2026-05-01 13:11 50.41662 9.35758 31004 ft 502 kts 227°
2026-05-01 13:11 50.39278 9.31735 30861 ft 503 kts 227°
2026-05-01 13:12 50.36901 9.27732 30845 ft 501 kts 227°
2026-05-01 13:12 50.32193 9.19818 30808 ft 498 kts 227°
2026-05-01 13:13 50.27762 9.11528 30584 ft 498 kts 239°
2026-05-01 13:13 50.24782 9.01766 30407 ft 498 kts 248°
2026-05-01 13:14 50.22441 8.91638 29939 ft 490 kts 251°
2026-05-01 13:14 50.21375 8.86721 29369 ft 484 kts 251°
2026-05-01 13:14 50.20223 8.81639 29131 ft 488 kts 250°
2026-05-01 13:15 50.17875 8.71720 29124 ft 487 kts 250°
2026-05-01 13:15 50.15504 8.61822 29118 ft 487 kts 250°
2026-05-01 13:16 50.13129 8.51934 29118 ft 487 kts 250°
2026-05-01 13:16 50.10762 8.42062 29113 ft 486 kts 250°
2026-05-01 13:17 50.06463 8.24287 29106 ft 486 kts 249°
2026-05-01 13:18 50.02855 8.09557 29092 ft 486 kts 250°
2026-05-01 13:18 50.01680 8.04736 28858 ft 470 kts 250°
2026-05-01 13:18 50.00526 8.00012 28124 ft 462 kts 250°
2026-05-01 13:19 49.99394 7.95394 27631 ft 449 kts 250°
2026-05-01 13:19 49.98304 7.90954 27539 ft 428 kts 250°
2026-05-01 13:19 49.96303 7.82723 27334 ft 388 kts 250°
2026-05-01 13:20 49.95389 7.78940 27241 ft 369 kts 250°
2026-05-01 13:20 49.94503 7.75266 26915 ft 358 kts 250°
2026-05-01 13:20 49.93639 7.71669 26296 ft 356 kts 250°
2026-05-01 13:21 49.91882 7.64489 25027 ft 353 kts 244°
2026-05-01 13:21 49.90510 7.61367 24417 ft 350 kts 226°
2026-05-01 13:21 49.88597 7.59086 23830 ft 347 kts 208°
2026-05-01 13:21 49.86335 7.57901 23233 ft 343 kts 189°
2026-05-01 13:22 49.83968 7.57964 22631 ft 340 kts 169°
2026-05-01 13:22 49.81757 7.59259 21814 ft 345 kts 150°
2026-05-01 13:22 49.79876 7.61633 20815 ft 354 kts 132°
2026-05-01 13:22 49.78529 7.64841 19807 ft 361 kts 113°
2026-05-01 13:23 49.77976 7.68631 18818 ft 367 kts 93°
2026-05-01 13:23 49.78289 7.72559 17825 ft 372 kts 75°
2026-05-01 13:23 49.79253 7.76311 16820 ft 378 kts 63°
2026-05-01 13:23 49.80503 7.79924 15818 ft 383 kts 62°
2026-05-01 13:24 49.81805 7.83546 14669 ft 390 kts 60°
2026-05-01 13:24 49.83165 7.87232 13419 ft 398 kts 60°
2026-05-01 13:24 49.84538 7.91006 12166 ft 404 kts 61°
2026-05-01 13:25 49.87277 7.98630 10431 ft 395 kts 61°
2026-05-01 13:25 49.88571 8.02249 10293 ft 371 kts 62°
2026-05-01 13:25 49.89772 8.05611 10164 ft 350 kts 62°
2026-05-01 13:25 49.90914 8.08812 10041 ft 329 kts 62°
2026-05-01 13:26 49.92003 8.11861 9918 ft 309 kts 62°
2026-05-01 13:26 49.93007 8.14669 9735 ft 293 kts 62°
2026-05-01 13:26 49.93979 8.17406 9273 ft 288 kts 64°
2026-05-01 13:26 49.94822 8.20237 8665 ft 288 kts 68°
2026-05-01 13:27 49.95264 8.23240 8059 ft 287 kts 90°
2026-05-01 13:27 49.94829 8.26209 7501 ft 282 kts 116°
2026-05-01 13:27 49.91913 8.29632 6855 ft 260 kts 169°
2026-05-01 13:28 49.88685 8.27910 6084 ft 255 kts 224°
2026-05-01 13:28 49.87844 8.25502 5619 ft 256 kts 252°
2026-05-01 13:29 49.88660 8.20336 4779 ft 258 kts 309°
2026-05-01 13:29 49.91844 8.18343 4118 ft 251 kts 357°
2026-05-01 13:30 49.96246 8.24274 3071 ft 227 kts 74°
2026-05-01 13:31 49.97078 8.29000 3000 ft 227 kts 75°
2026-05-01 13:31 49.98554 8.35898 2788 ft 214 kts 70°
2026-05-01 13:32 49.99383 8.39333 2263 ft 195 kts 70°
2026-05-01 13:33 50.00618 8.44488 1606 ft 153 kts 71°
2026-05-01 13:33 50.01351 8.47563 1171 ft 152 kts 71°
2026-05-01 13:34 50.02087 8.50622 753 ft 148 kts 71°
2026-05-01 13:34 50.02802 8.53604 394 ft 143 kts 71°
2026-05-01 13:35 50.03383 8.56054 378 ft 73 kts 69°
2026-05-01 13:35 50.03530 8.56669 377 ft 56 kts 70°
2026-05-01 13:35 50.03764 8.57160 377 ft 9 kts 40°
2026-05-01 13:36 50.03774 8.57174 377 ft 1 kts 40°
2026-05-01 13:36 50.03781 8.57183 377 ft 1 kts 40°
2026-05-01 13:36 50.03793 8.57198 377 ft 8 kts 40°
2026-05-01 13:38 50.03965 8.57470 377 ft 21 kts 66°
2026-05-01 13:38 50.03998 8.57598 377 ft 21 kts 68°
2026-05-01 13:39 50.04042 8.57773 377 ft 19 kts 69°
2026-05-01 13:39 50.04088 8.57961 377 ft 18 kts 69°
2026-05-01 13:40 50.04131 8.58140 377 ft 17 kts 70°
2026-05-01 13:40 50.04171 8.58310 377 ft 16 kts 70°
2026-05-01 13:40 50.04208 8.58470 377 ft 15 kts 70°
2026-05-01 13:40 50.04243 8.58621 377 ft 14 kts 70°
2026-05-01 13:41 50.04275 8.58763 377 ft 13 kts 70°
2026-05-01 13:41 50.04307 8.58895 377 ft 13 kts 69°
2026-05-01 13:41 50.04342 8.59038 377 ft 16 kts 69°
2026-05-01 13:41 50.04381 8.59195 377 ft 15 kts 69°
2026-05-01 13:42 50.04417 8.59342 377 ft 14 kts 69°
2026-05-01 13:42 50.04387 8.59479 377 ft 15 kts 173°
2026-05-01 13:42 50.04252 8.59487 377 ft 29 kts 181°
2026-05-01 13:42 50.04020 8.59356 377 ft 37 kts 222°
2026-05-01 13:43 50.03919 8.59098 377 ft 19 kts 252°
2026-05-01 13:43 50.03880 8.58908 377 ft 18 kts 249°
2026-05-01 13:43 50.03835 8.58728 377 ft 21 kts 248°
2026-05-01 13:43 50.03748 8.58400 377 ft 38 kts 246°
2026-05-01 13:44 50.03659 8.58077 377 ft 24 kts 251°